Theta_e
327 326 325 321 307 305 300 301 307 306 307 310 310 310 308 310 306 304 324 332 332 335 337 345 348 351 351 352 352 351 351 348 348 349 349 348 345 344 345 345 344 344 342 340 338 336 335 331 329
323 321 322 313 302 298 299 304 304 307 309 310 310 310 309 307 314 316 323 331 332 333 336 340 346 350 351 351 351 350 349 349 349 349 348 344 342 338 338 339 340 341 339 337 335 332 329 326 327
322 319 312 307 303 298 298 303 306 306 309 309 309 312 311 309 315 319 329 333 333 332 335 338 345 350 350 350 350 349 349 349 349 347 344 343 339 337 336 336 337 337 336 333 329 327 325 325 324
319 315 311 302 300 302 302 305 307 306 309 309 310 307 313 317 317 322 328 333 332 332 334 340 345 349 350 350 350 350 350 350 348 346 343 341 340 337 335 335 336 336 332 328 326 324 323 321 321
318 311 303 300 301 302 305 307 307 306 307 309 309 307 309 315 319 321 328 332 332 333 334 341 344 347 349 350 350 350 350 348 349 346 341 340 338 335 333 334 334 331 328 325 324 323 321 320 319
310 309 301 299 300 303 306 308 307 307 308 309 307 308 310 317 317 320 326 331 334 333 336 339 339 342 346 347 348 349 349 349 347 344 341 339 337 334 331 333 330 328 325 325 323 322 320 318 316
308 305 301 300 300 302 305 309 307 307 308 308 311 306 312 314 317 321 325 330 334 335 337 339 342 342 337 342 344 345 346 346 343 341 340 337 336 333 330 330 327 325 325 325 322 321 319 316 314
311 307 301 302 300 300 306 307 309 307 306 311 312 306 308 315 316 321 324 328 331 334 336 337 339 341 343 343 335 338 339 338 338 337 335 332 331 330 329 327 326 324 325 323 321 319 317 314 311
312 303 300 301 301 302 307 304 308 310 307 309 311 310 313 315 317 320 322 325 327 331 334 336 337 338 340 342 338 331 332 332 332 332 329 325 330 327 324 323 326 325 324 321 320 317 314 311 307
307 302 302 305 305 303 305 305 305 305 305 306 308 312 314 313 314 316 318 320 323 326 331 334 335 336 338 337 340 339 337 335 334 333 331 330 330 326 323 320 323 325 323 320 317 315 311 307 305
307 301 305 305 306 306 304 304 306 304 303 306 306 309 311 313 313 313 315 318 320 324 327 330 332 334 336 337 337 338 339 337 336 334 333 331 328 325 322 322 321 321 316 315 314 309 304 304 305
302 305 305 306 306 305 303 306 304 305 305 309 310 310 311 310 311 312 313 315 317 320 324 327 329 331 333 335 335 334 334 335 333 332 330 330 326 323 320 319 320 321 316 315 313 307 306 304 303
303 304 305 306 306 305 306 303 303 304 308 310 310 310 309 310 310 312 313 315 316 317 321 324 328 329 331 332 333 332 331 331 332 330 331 328 324 320 319 318 319 319 315 313 309 305 304 304 302
304 303 303 304 304 304 302 303 304 305 308 308 308 307 308 309 310 311 312 312 313 316 318 321 324 327 329 330 331 330 331 330 330 330 330 327 323 320 317 316 316 316 313 311 306 304 303 303 303
303 298 301 303 304 302 303 299 300 306 307 306 306 307 308 309 310 310 311 311 313 314 316 319 321 324 325 327 328 329 329 328 328 328 328 324 322 319 316 315 314 314 312 308 304 303 303 301 301
298 299 294 302 301 301 301 295 302 305 304 304 306 307 309 309 310 311 311 311 312 313 313 316 317 320 322 324 326 327 327 326 327 326 325 323 320 318 315 312 312 312 308 304 302 301 300 300 299
298 293 295 298 304 300 299 296 302 305 303 303 305 306 306 307 309 310 311 311 311 311 312 313 316 317 319 321 323 324 325 324 324 324 322 321 318 316 313 310 310 309 304 302 301 300 300 299 299
294 295 297 296 301 300 298 298 302 304 303 303 304 306 306 307 307 308 309 310 311 311 311 312 313 314 315 317 320 321 322 322 322 321 320 319 317 314 311 309 308 306 302 300 300 299 300 300 299
298 295 294 298 301 299 297 297 299 302 303 303 304 305 306 306 308 308 308 310 310 310 309 309 309 311 312 313 314 316 316 318 318 319 318 317 315 313 309 307 306 304 300 300 300 299 298 298 298
295 294 294 298 301 298 297 295 298 301 302 304 303 304 304 304 305 306 307 307 307 307 307 307 307 308 309 311 313 314 314 316 316 317 316 316 314 311 309 306 304 302 299 299 299 298 296 297 296
296 295 295 294 296 297 295 294 298 302 305 305 304 303 303 303 303 303 303 303 304 304 305 305 305 306 307 307 309 310 311 312 309 312 312 313 312 311 308 305 304 302 300 298 298 298 296 294 295
291 296 294 292 291 288 296 286 295 300 301 300 300 301 301 302 302 300 300 300 300 301 304 303 304 304 305 306 305 305 305 304 306 308 309 310 310 309 308 305 303 302 300 298 298 298 297 297 292
293 295 293 292 291 291 292 289 295 300 296 296 299 300 300 299 298 298 298 298 298 299 300 301 300 301 302 304 303 303 303 305 306 306 307 306 307 307 306 305 303 302 300 299 298 297 296 297 295
295 293 294 295 292 286 293 292 293 295 296 297 298 297 297 297 297 296 297 297 296 297 298 299 297 297 299 299 299 300 300 301 302 303 303 304 304 304 304 303 302 301 300 298 298 297 296 296 296
293 291 287 286 287 286 293 290 293 298 300 297 296 295 296 296 295 295 294 294 294 294 295 295 295 294 295 295 297 297 297 298 299 300 301 302 302 302 302 301 301 300 300 299 298 297 295 295 295
293 294 286 280 282 286 292 286 293 301 296 297 297 296 296 295 295 294 294 294 293 294 294 293 293 292 293 293 294 296 296 296 297 298 299 300 300 302 302 301 300 300 299 299 298 297 296 295 295
293 288 294 287 288 284 288 292 298 299 295 296 296 295 293 293 293 293 294 293 293 293 293 294 293 293 292 292 293 293 294 294 294 295 296 297 299 298 300 300 299 298 298 298 297 295 294 294 294
291 293 286 287 279 279 285 288 289 292 293 294 293 292 291 291 291 291 291 292 291 291 292 293 292 292 292 291 291 292 293 293 293 294 294 294 295 296 296 297 297 297 296 296 295 294 294 293 293
288 286 287 288 287 281 280 285 294 292 292 291 290 290 290 289 289 289 290 290 291 290 290 290 290 290 290 290 290 290 291 291 291 292 292 293 293 293 294 295 295 295 295 294 294 293 293 292 292
294 291 291 284 283 285 284 284 298 296 290 289 289 288 288 288 288 288 288 288 288 288 288 288 288 288 288 288 288 288 289 289 288 287 288 290 291 292 292 292 292 293 293 293 293 292 291 291 290
Wind_Speed
8 7 6 6 6 4 5 2 3 2 2 4 2 6 9 9 8 5 3 6 4 14 15 16 12 14 12 11 9 11 12 11 12 12 12 11 11 8 8 8 7 8 8 8 8 7 6 5 5
6 5 6 5 6 6 6 3 1 7 6 4 3 6 7 8 2 1 4 9 7 13 13 15 11 13 13 13 11 10 11 9 11 12 11 11 9 4 3 3 4 6 7 7 7 7 5 4 4
7 5 5 4 4 6 6 2 3 3 3 5 4 3 6 3 2 2 5 11 10 13 12 13 15 12 14 13 12 11 11 10 10 11 8 11 7 3 3 2 2 4 5 6 6 6 5 5 5
4 5 5 6 6 6 4 8 7 8 2 3 4 8 3 3 2 5 2 10 10 12 12 15 16 12 12 14 12 12 12 12 12 13 10 9 9 6 3 5 4 6 5 5 6 6 6 5 5
5 4 5 5 7 3 4 6 5 6 4 3 4 4 3 4 4 3 4 9 10 12 12 13 13 13 12 15 14 14 13 13 14 10 11 9 8 7 6 6 7 6 6 6 6 7 6 6 6
4 4 6 6 6 2 3 1 3 5 4 1 5 10 5 6 6 6 6 9 9 11 11 10 11 10 12 13 14 14 13 14 13 13 11 11 8 8 7 7 7 7 7 7 7 7 6 6 6
6 5 8 8 9 6 2 2 5 5 5 5 2 6 0 7 5 5 6 8 9 11 11 11 12 12 9 10 11 13 15 13 12 10 11 10 9 8 9 8 8 8 8 8 8 8 7 6 6
5 4 6 5 5 9 4 3 3 6 8 3 2 6 5 8 5 4 5 8 10 11 12 12 12 13 13 12 10 12 11 11 11 11 11 10 9 7 7 7 7 9 9 9 9 8 8 7 6
3 6 9 9 6 3 4 7 5 3 10 10 9 12 6 4 4 5 6 9 10 11 13 13 13 13 14 13 11 7 8 8 9 10 11 10 8 10 10 9 10 10 10 9 8 8 8 8 6
6 8 10 5 9 8 11 8 13 12 13 17 15 16 13 6 7 10 11 11 13 14 15 14 14 14 13 11 13 13 11 10 10 10 10 7 11 9 9 9 9 9 8 9 9 8 8 7 4
6 10 12 10 11 13 12 14 15 14 17 19 14 8 9 10 12 14 14 14 14 15 12 15 15 15 14 11 8 7 8 8 8 12 10 11 8 6 5 5 6 7 7 6 7 5 5 3 2
10 14 15 12 6 7 14 16 16 15 22 21 20 18 16 15 15 15 15 15 13 14 15 15 16 14 14 9 9 9 8 8 8 10 12 9 6 7 8 6 8 7 7 8 7 4 3 4 2
14 15 14 12 11 14 16 22 18 20 22 23 21 17 16 14 16 15 13 12 12 15 14 16 16 15 13 14 9 10 10 9 9 10 12 9 9 8 8 7 7 7 7 6 6 6 6 5 5
11 11 17 18 17 15 16 22 16 14 15 14 13 15 15 14 13 12 12 13 14 14 15 15 16 16 15 13 14 9 8 9 9 9 10 13 9 9 9 8 8 8 7 7 6 5 5 5 4
10 14 17 21 21 12 7 13 14 18 14 15 16 16 15 15 15 13 13 12 11 12 13 14 15 15 16 16 13 10 8 8 8 8 11 12 11 9 9 7 7 7 7 8 6 6 5 4 3
10 11 11 5 5 2 7 15 16 8 7 15 22 22 21 22 18 15 14 13 11 11 12 12 10 14 15 14 12 9 9 8 8 8 8 12 13 12 10 8 8 8 7 7 7 8 7 6 5
13 13 16 15 13 1 11 13 12 21 21 25 24 22 18 18 14 11 11 9 7 8 8 9 10 13 13 12 10 10 10 8 8 8 8 11 13 13 10 8 8 10 8 8 8 7 8 7 7
16 20 20 16 17 11 16 22 19 20 21 23 24 20 16 14 9 9 8 7 5 4 3 4 5 8 9 7 7 7 8 8 8 8 9 13 11 13 11 8 9 9 7 8 8 9 7 7 7
20 21 23 22 20 23 21 21 20 21 24 22 20 15 9 8 7 9 9 11 10 10 8 4 1 4 5 6 6 7 8 7 8 8 12 11 10 12 13 9 10 10 10 10 10 8 9 6 7
17 21 21 20 16 16 21 21 25 19 19 12 10 9 8 8 15 14 17 16 16 16 15 12 8 3 3 4 5 5 5 7 7 7 9 11 12 12 12 12 11 12 9 12 12 11 8 6 9
20 22 21 23 18 17 14 17 10 10 16 6 6 10 13 17 16 16 17 18 18 19 18 15 14 11 5 2 2 3 5 5 4 6 7 10 13 13 14 14 11 12 11 11 13 14 15 9 9
16 11 8 12 10 9 11 10 17 10 5 15 15 15 17 17 17 18 19 20 19 17 15 17 16 15 11 9 4 4 5 7 6 6 6 8 11 13 13 15 15 14 12 13 13 12 13 11 11
9 5 9 11 13 17 12 9 4 4 12 13 14 17 18 19 17 17 18 17 17 17 15 15 16 15 15 12 9 6 8 6 6 6 9 8 8 11 13 14 16 15 12 14 15 15 17 12 10
3 8 13 14 8 9 12 14 5 4 6 9 18 16 15 14 14 14 13 13 14 15 15 15 18 18 17 16 15 12 11 11 9 7 8 6 6 7 12 14 14 15 14 15 14 15 17 15 13
7 8 7 7 8 9 2 7 11 8 1 11 13 11 12 12 12 12 14 13 14 14 14 13 16 16 16 15 15 14 13 12 11 11 9 11 6 6 8 12 14 13 15 15 15 15 16 17 15
11 7 5 7 11 15 14 9 9 8 16 13 12 12 11 11 9 10 9 9 10 11 12 12 13 13 13 14 13 13 13 8 8 9 10 9 9 8 8 10 13 15 16 15 15 12 13 15 15
3 6 8 11 13 8 10 16 15 4 11 11 10 9 10 10 10 10 9 9 9 10 12 13 11 10 9 9 10 12 11 12 11 12 11 10 11 8 10 10 11 15 15 16 15 13 15 15 15
5 3 4 5 5 13 15 15 13 11 11 6 8 10 10 10 12 12 12 12 13 14 12 12 13 13 13 12 11 11 10 11 10 9 10 11 12 13 11 10 12 13 14 14 15 14 14 15 13
4 6 6 5 6 8 14 12 11 12 8 5 6 9 11 12 12 13 13 13 13 14 15 15 14 15 14 14 14 12 11 11 11 10 11 10 11 12 11 11 12 13 12 13 15 16 16 17 16
16 17 17 15 12 10 12 17 15 5 8 6 4 3 5 7 9 9 10 11 12 12 12 13 13 13 11 12 12 12 11 11 11 12 13 13 13 12 11 12 12 12 13 13 15 16 15 18 18
Wind_Direction
262 273 288 259 258 226 271 90 348 288 268 41 323 295 339 319 313 3 123 170 174 162 157 170 176 172 172 172 173 166 153 170 164 162 152 138 121 127 129 107 104 111 106 93 84 80 80 66 54
283 287 244 284 258 270 72 53 239 36 19 327 282 254 266 291 356 137 195 165 171 162 162 176 173 175 174 173 172 159 154 175 171 161 158 127 115 153 154 156 144 114 103 99 100 95 91 88 72
271 268 269 277 288 338 347 43 348 338 302 275 279 260 312 299 94 22 72 156 169 167 170 174 165 177 180 180 171 165 171 187 179 165 146 140 144 164 151 173 182 159 122 115 111 110 105 86 79
266 201 217 257 305 332 297 328 345 304 152 219 284 271 187 346 8 44 94 158 174 170 178 142 165 182 182 182 175 181 189 192 174 165 146 134 147 150 155 187 143 125 150 135 131 117 105 99 94
229 248 260 251 282 287 306 307 297 279 294 232 206 263 268 134 129 144 157 175 184 181 185 157 169 185 187 181 177 184 185 189 174 161 155 136 154 160 189 189 172 160 159 150 129 120 114 100 94
236 279 253 283 344 314 263 349 285 256 271 188 241 263 267 114 174 183 189 191 199 190 187 188 175 189 183 181 180 184 185 184 169 160 152 156 158 190 195 179 176 176 170 152 139 127 112 101 93
279 265 281 292 288 282 231 139 237 314 285 248 259 267 181 175 171 168 196 197 200 196 192 198 186 195 188 187 187 188 190 182 175 155 156 162 164 187 201 188 184 183 173 154 148 138 129 119 105
283 274 269 234 290 293 154 195 282 277 295 49 262 250 257 105 142 171 196 207 203 202 196 203 196 193 198 196 183 182 182 181 171 158 156 156 154 174 193 172 190 184 167 159 155 145 136 125 111
283 258 272 272 269 278 147 269 158 288 277 250 237 272 9 95 158 188 198 212 209 209 207 207 205 202 202 199 188 191 186 176 159 156 150 150 193 191 182 196 168 186 170 164 157 150 138 127 116
231 246 278 304 294 283 302 280 290 289 270 271 251 234 241 208 232 229 220 219 215 212 209 211 210 209 208 204 195 200 204 206 202 196 170 194 212 199 199 173 170 166 159 165 162 152 146 195 161
210 247 273 297 282 296 289 286 274 261 272 268 282 298 296 224 233 244 247 238 229 222 215 214 210 211 209 214 208 199 206 202 208 206 194 203 207 187 189 167 175 171 161 176 172 163 200 205 196
263 247 270 287 294 289 274 288 283 270 268 281 290 294 291 277 250 250 252 255 243 235 220 214 217 211 211 212 205 211 209 206 198 199 199 191 196 188 190 188 184 181 174 185 180 183 187 186 185
246 272 279 287 276 266 278 271 269 271 271 279 284 281 271 257 264 265 256 251 248 243 229 219 208 215 211 209 214 215 212 205 203 198 203 193 195 193 191 191 185 181 178 181 179 183 177 178 170
318 294 285 280 273 264 262 273 286 269 273 278 282 277 269 264 262 256 245 242 229 233 232 225 217 214 213 216 216 212 217 211 209 203 208 199 201 195 192 189 189 186 183 181 189 184 178 174 161
290 295 294 277 258 242 271 264 242 264 263 284 289 277 262 272 275 261 266 265 242 233 233 222 216 211 217 216 222 224 218 220 208 211 208 201 216 204 197 193 192 191 180 177 180 174 175 170 175
278 280 285 325 104 153 210 280 295 9 332 296 292 290 288 293 287 278 274 256 248 247 233 224 211 210 212 218 214 218 222 218 226 213 211 209 210 211 198 196 195 189 179 182 182 175 175 179 175
242 269 281 292 304 226 218 293 305 313 305 294 288 286 292 296 303 306 319 297 275 267 253 228 217 214 220 221 223 219 221 224 221 221 217 213 208 213 207 205 196 186 183 190 187 182 184 176 173
289 296 297 291 295 254 268 283 287 288 289 278 283 295 302 304 339 11 357 356 341 342 327 272 202 215 218 225 230 235 231 223 227 227 220 212 207 210 216 209 196 185 188 191 190 186 195 180 171
284 287 284 291 295 290 293 298 299 289 284 278 287 297 311 356 45 42 45 47 48 53 40 34 176 199 206 198 215 226 232 225 227 227 231 225 215 213 208 208 200 184 190 192 190 185 183 185 161
283 280 283 288 298 312 293 294 286 280 266 286 318 341 23 78 79 57 51 43 48 44 35 36 30 10 228 237 215 233 231 238 240 227 227 229 225 213 214 213 205 191 189 194 191 187 175 181 178
272 281 291 294 309 292 300 279 256 269 284 345 27 73 85 91 67 56 49 40 31 29 25 29 28 18 3 284 267 251 269 280 277 255 238 229 229 222 213 213 214 203 196 196 192 190 183 180 191
286 308 315 306 313 300 356 295 304 278 311 84 90 87 93 69 60 47 40 36 31 26 23 25 33 24 11 355 336 293 283 280 270 256 249 246 228 235 225 217 217 209 202 202 197 192 194 190 189
274 343 309 297 283 287 272 244 267 273 125 113 81 81 71 62 54 44 42 40 33 25 23 24 32 34 23 12 5 350 329 314 306 296 275 242 235 229 232 225 225 222 213 212 201 198 200 201 193
319 278 272 259 266 259 262 227 277 95 119 118 93 76 66 61 56 55 49 41 35 30 24 20 23 26 23 17 10 7 351 332 317 304 295 269 249 232 225 234 229 231 222 215 214 204 205 206 209
226 258 305 279 224 260 53 309 259 306 12 89 100 84 73 71 64 49 40 37 35 30 29 24 25 23 16 13 7 14 2 342 324 318 308 300 270 247 239 231 233 231 229 225 219 214 210 207 208
203 256 211 267 281 294 317 263 256 212 94 105 104 97 80 59 54 46 50 41 33 31 33 30 30 25 15 8 358 22 14 354 337 327 319 309 296 287 246 239 237 236 234 229 226 222 219 216 215
84 230 282 264 281 280 245 267 265 190 108 115 104 83 55 40 38 38 35 35 32 32 31 31 23 24 23 10 6 23 10 0 352 339 326 317 307 293 286 257 248 242 235 232 230 229 220 219 218
248 1 238 209 240 253 265 266 270 192 156 92 51 30 25 19 16 17 15 14 19 23 20 20 19 13 11 11 10 13 356 352 349 344 338 328 313 304 292 271 258 248 244 236 229 230 228 226 221
195 239 221 298 190 261 270 268 34 51 71 67 30 21 7 4 3 1 1 3 6 10 8 7 7 2 2 1 360 357 354 353 343 339 340 337 321 306 295 288 271 257 244 242 237 230 231 230 227
269 266 265 248 242 225 253 262 293 7 102 67 26 31 2 348 344 351 354 358 1 0 357 355 355 352 354 350 347 346 344 345 343 339 335 333 327 319 308 295 280 270 264 245 241 240 231 231 230